Dewpoint
35 28 24 22 20 17 17 16 15 16 16 13 19 20 12 14 12 20 23 26 26 22 18 17 17 17 17 17 18 18 19 19 19 19 25 25 25 25 25 24 26 27 27 42 40 40 39 40 39 40 41 44 46 46 47 48 50 51 51 52 53 53 53 53 52 53 53 52 53 55 55 55 56 58 59 59 59 60 60 60 62 62 62 62 62 62
29 26 24 21 20 22 18 21 20 19 16 13 16 18 13 24 7 21 24 26 26 21 15 18 19 21 19 17 17 17 17 17 18 19 21 23 23 25 27 28 29 27 33 48 42 40 40 39 42 42 43 44 44 45 45 47 49 50 50 51 52 52 51 52 52 52 52 53 53 53 54 54 55 56 57 57 57 58 59 59 60 61 61 61 61 60
26 21 19 22 24 23 23 23 21 18 18 21 15 19 22 18 21 24 24 25 25 23 17 18 20 20 18 17 17 16 16 17 18 19 19 19 21 24 25 25 27 30 32 38 36 39 38 43 42 42 43 44 43 45 45 47 49 50 51 51 51 52 51 52 52 53 53 53 53 54 54 55 55 56 56 57 56 55 55 57 58 59 59 60 60 59
23 22 17 25 24 22 22 23 22 22 23 21 21 21 18 29 18 15 21 25 25 20 17 22 22 20 18 18 18 18 16 16 19 19 22 24 24 24 23 23 27 29 33 33 34 34 35 42 41 42 43 43 44 44 45 46 47 49 50 51 51 51 52 52 52 52 52 53 54 55 55 55 54 54 51 53 54 53 54 55 55 56 57 58 58 58
16 25 27 26 24 21 19 22 22 20 18 27 27 24 19 24 21 19 19 22 24 24 27 25 25 21 17 14 16 17 21 22 24 26 27 30 34 33 38 38 36 30 30 34 34 34 35 39 40 41 42 42 44 44 45 46 47 48 49 50 51 51 52 52 52 52 52 53 53 54 53 52 51 51 51 50 52 54 53 53 51 52 54 56 57 57
19 27 28 25 27 22 23 22 25 26 17 20 30 26 20 19 20 22 25 22 16 16 28 28 12 9 8 15 20 18 24 24 23 24 24 26 28 32 32 34 37 40 39 36 34 34 36 37 39 41 42 43 44 43 45 47 47 48 49 50 50 51 51 51 52 52 52 52 52 51 51 52 52 52 50 50 51 51 51 52 50 50 51 53 54 54
22 29 30 28 28 31 28 21 26 25 19 19 19 32 25 20 26 27 23 26 14 12 26 27 13 11 11 10 9 7 8 9 14 25 23 20 19 20 29 35 34 36 37 40 39 37 36 38 39 40 41 42 43 43 45 47 47 48 49 50 50 50 51 52 52 52 52 52 52 51 51 53 53 53 52 52 52 51 50 50 50 50 50 50 50 51
29 27 32 32 29 31 30 22 29 26 20 15 35 36 26 25 29 28 28 28 20 30 31 24 23 17 15 13 13 11 14 16 15 14 18 21 22 22 22 25 31 35 35 39 40 38 38 37 38 38 40 41 42 43 45 47 47 48 48 49 49 50 50 51 52 53 52 51 51 50 51 51 52 53 53 53 52 51 50 51 49 48 47 48 48 49
26 32 31 31 30 27 22 30 34 28 20 28 34 35 31 25 31 31 30 25 29 27 18 27 30 21 20 18 13 20 16 13 13 13 15 17 20 21 26 31 33 34 36 36 40 40 38 38 37 37 38 41 41 43 45 46 47 48 48 49 49 49 50 50 51 52 52 51 50 50 51 52 52 52 53 52 50 50 49 50 47 46 47 45 45 45
29 36 31 30 29 25 30 30 34 29 22 34 35 33 32 33 33 32 26 30 26 22 20 26 28 19 11 15 12 21 21 15 12 9 8 10 19 31 31 32 34 32 36 40 36 36 38 38 38 38 37 40 42 44 46 47 48 48 48 48 49 49 49 50 50 50 51 51 49 49 51 52 52 52 52 51 50 50 48 48 45 44 45 44 43 40
31 32 37 33 29 29 31 32 37 35 34 34 35 32 32 31 32 29 27 26 23 17 20 28 27 16 10 16 8 21 23 12 6 3 8 23 29 29 32 35 41 36 37 40 41 38 38 39 37 38 37 39 42 45 46 47 47 48 48 48 48 48 49 49 50 50 50 50 49 50 51 52 52 52 53 50 49 48 48 47 45 45 44 43 43 40
31 32 33 34 31 31 30 33 35 36 36 38 32 26 25 25 27 24 25 26 16 10 25 24 27 21 14 19 17 14 16 19 18 12 3 11 21 34 36 33 34 34 36 39 38 39 39 38 37 38 37 38 41 44 45 47 48 48 48 48 48 48 48 49 49 49 49 49 50 50 51 52 52 53 50 50 48 47 47 47 45 43 43 42 39 39
32 32 34 35 35 31 34 29 29 35 35 34 25 22 16 13 17 12 22 20 16 12 22 21 27 21 21 15 11 15 10 15 15 17 18 20 19 22 35 38 38 41 39 40 41 41 40 40 39 39 38 39 41 43 44 46 47 47 48 48 47 47 48 48 48 48 49 49 50 50 50 51 53 53 50 49 49 47 47 46 44 43 45 43 42 38
27 35 34 36 32 32 32 23 28 26 29 27 22 20 15 8 12 13 14 18 15 24 23 22 28 17 13 12 14 12 10 10 13 18 27 26 26 26 28 38 35 41 40 41 41 44 44 43 43 41 40 40 42 43 44 45 46 48 47 48 47 47 48 48 48 48 48 48 48 49 50 51 52 50 50 48 48 46 46 46 45 45 45 43 45 44
17 26 30 34 27 31 32 24 26 23 27 25 27 23 18 12 12 14 12 11 16 11 20 26 19 19 15 5 17 19 19 22 21 21 26 29 30 32 34 36 37 37 36 42 43 44 43 44 43 43 42 43 43 44 44 45 47 47 47 48 47 47 48 48 47 47 47 47 47 48 49 50 51 49 48 47 48 46 45 45 45 43 42 43 42 41
21 16 29 32 32 30 31 31 24 26 30 29 29 29 21 18 12 7 16 17 18 17 21 24 18 18 15 21 21 22 22 22 22 24 27 28 28 33 34 35 36 36 35 36 38 41 41 42 43 44 44 43 44 44 45 45 47 47 47 46 47 46 47 47 47 47 46 46 46 47 47 48 50 48 48 47 46 45 45 44 45 43 42 42 41 39
22 14 36 34 31 27 29 32 26 29 22 28 30 28 26 27 22 17 23 25 21 15 12 22 20 19 17 11 11 14 15 14 20 22 25 25 26 32 36 40 36 38 39 38 40 39 39 41 43 44 43 44 43 44 45 45 46 47 47 47 47 46 46 47 47 47 46 46 46 46 47 48 49 46 46 46 46 45 44 46 46 44 44 43 43 43
18 19 32 33 31 32 34 35 32 33 37 31 25 25 32 31 30 20 12 21 16 10 13 14 14 9 9 10 18 12 15 15 14 13 12 18 24 28 39 42 40 42 41 40 39 41 41 41 41 43 43 43 43 44 44 45 46 47 47 47 46 46 46 47 47 46 45 45 45 46 46 47 48 47 45 45 45 45 45 46 46 45 44 45 43 42
26 17 29 33 35 35 33 32 29 36 34 31 27 35 24 19 18 18 17 14 14 15 15 11 9 11 14 11 9 13 11 11 12 13 14 14 17 25 30 34 39 40 39 41 41 41 41 41 42 42 42 42 42 43 44 45 46 47 47 47 46 46 46 47 47 46 45 45 45 46 45 46 47 47 45 44 45 43 44 44 44 44 45 45 43 39
28 19 25 30 31 33 32 29 24 26 34 33 35 29 35 25 20 17 17 21 12 12 15 18 12 13 20 14 12 11 9 12 8 8 11 12 16 19 25 38 39 39 39 41 42 42 43 42 41 41 41 41 42 43 44 45 46 46 47 47 46 47 47 47 46 45 45 45 44 45 45 45 45 44 44 43 43 43 43 42 43 43 43 44 39 38
21 20 16 30 34 31 26 29 25 27 28 25 25 23 30 28 31 25 27 18 13 13 11 11 11 11 15 11 10 11 11 10 12 18 25 28 26 25 34 37 39 39 41 41 43 42 43 42 40 40 41 41 42 43 44 45 45 46 47 47 47 46 46 46 46 45 45 45 44 44 45 45 44 42 42 42 42 42 41 41 41 41 41 39 36 35
25 20 18 27 28 27 26 29 27 28 28 25 23 22 23 23 23 21 20 27 24 18 16 12 13 17 15 16 14 11 11 12 19 22 25 25 21 33 39 40 41 42 40 39 40 41 42 40 40 40 41 42 42 42 43 45 45 46 46 46 46 46 46 46 46 45 45 45 44 44 44 44 44 42 41 41 40 40 39 40 40 39 37 36 34 32
24 26 22 22 27 27 27 33 34 31 35 30 24 23 25 24 23 20 17 21 23 21 25 24 19 20 18 17 16 15 15 19 25 30 29 29 31 30 36 39 40 41 40 39 40 40 40 41 40 39 40 41 41 42 42 44 45 45 45 45 46 46 46 46 46 46 45 44 44 43 44 43 42 42 41 41 41 39 38 37 37 36 35 34 32 30
32 27 24 22 25 32 31 35 35 33 34 33 32 34 30 23 25 22 19 25 22 23 20 18 18 19 22 24 23 23 27 31 29 28 30 29 32 35 37 39 39 42 43 41 40 38 38 39 40 39 39 39 40 41 41 42 43 44 45 45 46 46 46 46 46 45 45 44 43 43 43 42 41 40 39 39 39 39 38 36 35 34 34 32 31 30
27 26 23 20 20 22 28 30 30 35 34 30 28 30 32 32 31 31 29 26 22 24 23 18 16 18 23 29 32 26 25 24 23 26 31 33 34 36 35 38 40 41 41 39 38 38 38 38 37 38 39 39 40 40 40 41 42 43 44 44 45 45 46 45 45 45 44 43 43 43 42 41 39 38 38 37 36 38 38 34 32 32 32 31 29 29
29 31 25 20 18 17 19 22 22 26 28 29 31 32 31 32 30 30 25 25 22 24 25 21 18 17 15 21 25 24 26 23 24 29 30 34 34 33 36 39 40 41 41 40 40 41 39 38 39 39 39 40 39 40 40 41 41 42 43 44 45 45 45 45 45 45 44 43 43 43 42 41 39 38 37 36 35 35 35 31 30 30 30 30 29 29
30 35 34 27 22 21 22 26 34 30 29 28 30 31 32 34 31 31 28 24 22 24 23 25 24 22 22 20 20 22 26 23 24 26 28 32 33 36 38 41 41 40 40 39 39 42 42 41 38 38 38 39 39 39 40 40 41 41 42 43 44 44 45 45 44 44 43 43 43 42 41 40 39 38 37 36 34 34 33 29 28 28 28 29 28 27
32 30 33 32 31 30 29 27 31 31 30 29 29 31 32 33 34 31 28 25 25 25 22 25 26 27 23 23 23 23 22 23 24 22 22 29 33 37 40 39 36 34 37 39 39 39 38 39 40 39 38 37 38 39 39 40 40 41 41 42 43 44 44 45 43 43 42 42 41 41 40 40 38 37 36 35 34 32 31 29 26 26 26 26 25 24
35 32 36 36 33 34 33 31 30 30 30 29 29 30 31 32 33 31 30 30 29 25 22 26 27 27 24 23 24 24 23 23 22 22 25 24 31 33 35 36 36 38 40 42 41 40 39 40 42 41 41 40 38 38 38 39 39 40 41 41 42 43 43 43 43 41 41 40 40 40 39 38 36 35 34 33 32 30 29 27 24 25 24 25 25 25
33 31 33 35 34 35 35 35 34 33 31 31 30 29 29 33 33 32 31 31 30 29 28 27 27 27 26 24 24 24 26 27 25 26 27 27 28 29 28 28 34 32 30 33 35 37 40 40 40 39 40 40 39 38 37 38 38 39 39 40 41 42 43 43 41 40 40 39 39 39 38 36 35 33 33 32 29 27 26 23 22 22 22 24 24 24
32 29 34 34 32 32 33 34 34 34 32 31 31 31 30 31 35 34 32 32 32 31 30 30 29 27 26 26 26 26 26 27 26 26 27 28 29 28 28 28 30 32 32 32 31 31 33 36 39 39 39 40 40 39 38 38 38 39 38 39 40 41 42 42 41 40 39 39 38 38 37 35 33 32 31 31 29 26 25 23 22 22 24 24 22 23
34 31 34 34 30 31 32 33 33 33 32 31 31 32 31 30 29 32 32 33 32 31 31 31 29 28 28 29 29 29 29 29 28 28 30 31 29 28 29 29 29 30 31 31 31 32 32 33 35 36 36 38 39 39 39 39 39 38 38 39 39 40 41 42 41 39 39 38 38 37 35 34 32 31 30 29 27 27 27 25 26 26 27 27 25 24
32 31 30 31 30 30 33 34 32 32 32 30 31 32 32 31 30 30 32 34 32 32 30 29 28 29 29 30 29 29 29 30 30 29 31 31 31 31 30 30 30 31 30 31 31 32 32 32 33 34 38 40 39 39 39 40 38 38 38 38 39 40 40 40 40 39 38 37 37 35 34 33 31 30 29 27 27 28 28 28 27 27 28 27 27 27
33 32 30 32 30 29 31 32 33 31 25 27 33 35 34 32 32 31 30 31 33 34 30 29 29 29 29 29 29 29 29 29 31 32 32 32 32 32 32 32 32 31 31 32 33 32 32 33 33 34 37 42 41 39 40 38 38 38 38 38 38 38 39 39 39 39 38 37 36 34 33 31 31 30 28 28 28 27 28 28 28 28 28 28 28 27
33 32 30 32 31 29 31 31 30 24 26 32 34 35 34 33 32 32 32 30 31 32 33 31 30 30 30 29 30 30 30 30 31 30 30 32 34 33 33 32 31 32 32 33 33 33 33 34 34 35 36 39 41 41 39 38 37 37 37 38 37 38 38 38 38 38 38 36 35 34 31 30 30 28 28 28 29 28 28 28 28 28 28 28 27 27
32 32 31 31 31 30 30 29 25 23 30 34 34 32 35 33 32 33 32 32 31 31 31 31 32 31 30 30 30 31 31 31 32 32 32 32 34 34 34 34 34 33 33 33 34 35 36 36 36 36 37 43 41 39 38 37 36 36 36 37 37 36 37 37 37 36 36 36 34 32 29 30 29 28 27 27 28 28 28 30 29 28 28 28 27 27
34 34 32 30 31 28 28 28 27 31 30 32 33 33 32 31 32 32 30 30 31 31 31 30 31 32 32 32 32 32 32 32 32 32 33 33 36 35 35 34 35 35 35 35 35 35 36 37 38 41 43 41 40 38 37 37 36 35 35 35 36 35 35 35 35 35 35 35 32 30 29 29 29 29 29 28 28 28 28 28 28 28 28 28 28 28
35 33 33 31 30 31 29 27 28 27 25 29 32 34 33 34 33 36 32 30 34 32 32 32 31 30 32 32 32 32 36 32 31 32 33 33 34 38 36 39 37 37 36 36 36 37 38 40 39 38 41 38 36 37 36 35 35 34 33 33 34 34 34 34 34 35 34 33 30 30 28 28 29 29 29 29 28 28 28 29 29 29 28 29 27 28
38 36 35 33 30 31 30 26 25 25 26 33 33 33 35 34 38 38 34 31 32 33 33 32 31 32 32 31 32 33 32 30 30 31 32 33 34 35 35 36 36 37 37 37 38 38 39 40 38 33 35 36 32 33 33 33 32 33 32 32 33 33 33 33 33 34 32 32 30 29 29 29 30 30 29 29 29 29 29 29 29 29 28 28 27 27
36 35 34 31 29 30 29 27 26 28 27 32 33 33 32 33 39 36 29 29 34 33 33 33 32 32 33 34 34 33 32 30 31 31 32 33 39 41 40 38 37 38 39 38 35 35 34 32 33 30 31 31 31 30 31 31 32 32 31 32 32 32 32 32 33 33 32 30 28 29 30 30 30 30 30 29 29 30 29 29 29 28 28 28 27 26
33 33 33 30 31 31 30 28 28 30 32 33 32 33 36 42 37 30 26 28 31 33 33 34 34 34 34 34 34 33 33 33 33 33 34 34 34 34 35 33 34 32 33 33 33 31 32 31 33 32 30 30 29 30 30 31 31 31 31 31 31 32 32 32 32 31 30 28 28 30 30 30 30 30 30 30 30 29 29 29 28 28 28 26 26 26
28 32 33 32 31 28 29 27 27 28 33 36 33 34 39 36 30 28 31 33 32 32 33 35 36 36 35 34 34 34 34 35 35 35 34 34 35 35 35 32 30 29 29 29 29 29 30 29 28 27 28 28 29 30 30 31 31 30 30 30 31 31 31 31 30 29 28 28 30 30 30 31 30 30 30 30 30 29 29 29 28 28 27 26 25 25
28 28 28 30 31 31 30 28 26 25 33 36 39 32 35 30 30 32 33 33 34 32 32 33 35 36 37 35 35 37 36 35 34 34 35 35 34 33 32 30 31 30 29 28 28 27 27 27 27 27 27 28 29 29 30 31 31 31 31 31 30 29 29 29 29 29 29 30 30 30 30 30 30 29 29 29 29 29 29 28 28 28 27 26 26 26
30 27 28 30 34 29 28 25 26 32 32 38 35 30 34 34 33 32 33 31 33 33 32 32 32 34 35 35 35 35 35 35 34 34 34 33 32 30 29 29 29 29 28 28 27 27 26 26 26 27 27 28 28 29 31 31 31 31 31 30 28 28 29 29 30 30 30 30 30 30 30 30 30 29 29 29 29 29 27 28 28 27 26 26 25 24
26 26 28 23 34 32 28 32 35 35 35 35 35 33 33 34 34 33 34 33 32 32 32 32 33 33 34 36 35 35 33 33 34 34 33 33 33 31 29 28 29 28 28 27 26 26 26 26 27 27 28 27 29 29 31 31 31 31 30 28 29 30 30 30 30 30 30 30 30 30 30 30 29 29 29 29 28 27 27 28 27 25 26 25 24 24
29 35 34 31 29 33 33 33 33 31 32 35 38 36 34 33 32 34 35 35 36 34 34 33 34 33 33 34 32 32 32 33 33 33 33 32 31 30 28 28 28 27 26 26 26 27 27 28 29 29 28 28 28 28 30 30 31 30 29 28 30 30 30 30 30 30 29 29 30 30 30 29 29 29 28 28 27 27 26 26 26 25 24 25 24 24
31 34 31 30 35 31 28 36 35 34 33 35 36 36 34 31 32 35 34 33 35 35 36 36 35 32 31 30 30 31 31 31 31 32 32 32 30 29 27 28 28 27 27 27 26 29 29 30 30 30 29 29 29 29 29 30 30 30 29 30 30 30 30 30 29 29 29 29 29 29 29 28 27 27 28 27 27 26 26 26 25 25 25 25 24 24
26 35 27 27 28 27 29 31 29 29 34 36 36 35 34 37 38 38 38 38 36 36 36 35 33 31 30 29 29 30 30 30 31 31 31 31 30 28 27 27 27 26 26 26 27 29 29 30 30 30 29 28 26 28 30 30 30 30 30 30 30 30 30 29 29 28 28 28 28 28 28 28 26 27 27 27 27 26 26 26 26 25 25 25 25 25
27 27 23 25 24 26 28 27 26 27 33 36 38 38 37 37 37 36 37 38 38 37 36 36 35 33 32 31 31 30 30 31 31 31 31 31 30 28 27 27 27 27 26 27 28 29 29 29 30 29 28 25 26 27 28 29 29 30 29 29 29 29 29 28 28 28 28 28 28 28 27 27 28 27 27 27 27 27 27 27 26 26 25 25 27 27
27 26 26 25 24 23 23 23 22 21 21 22 25 28 29 31 35 36 37 37 36 36 36 36 36 36 33 32 31 30 30 30 31 31 31 30 30 29 28 27 27 26 27 27 28 29 29 29 29 27 25 23 24 26 27 27 28 29 29 30 30 29 28 28 28 28 28 27 27 27 27 27 27 27 26 25 24 24 24 25 27 25 23 23 25 26
22 23 22 22 22 20 21 22 23 24 23 24 25 27 29 31 33 35 34 34 34 34 35 35 35 35 35 35 31 30 30 29 30 30 30 30 30 29 27 28 28 27 26 27 28 28 28 27 26 25 23 23 24 24 25 26 27 28 28 29 29 29 28 28 27 26 27 26 26 26 26 26 26 25 24 24 24 23 22 22 24 26 25 25 25 24